Regional Weather Roundup
Issued by NWS

Home | Current Version | Previous Version | Graphics & Text | Print | Product List | Glossary On
Versions: 1 2 3 4 5 6 7 8 9 10 11 12 13 14 15 16 17 18 19 20 21 22 23 24 25 26 27 28 29 30 31 32 33 34 35 36 37 38 39 40 41 42 43 44 45 46 47 48 49 50
000
ASUS43 KLOT 300604
RWRIL

ILLINOIS REGIONAL WEATHER ROUNDUP
NATIONAL WEATHER SERVICE CHICAGO/ROMEOVILLE IL
100 AM CDT TUE MAY 30 2017

NOTE: "FAIR" INDICATES FEW OR NO CLOUDS BELOW 12,000 FEET WITH NO
SIGNIFICANT WEATHER AND/OR OBSTRUCTIONS TO VISIBILITY.

* THESE STATIONS ARE NOT UNDER NWS QUALITY CONTROL. THEY ALSO MAY NOT
  REPORT WEATHER SUCH AS PRECIPITATION OR FOG.

ILZ001-002-007-009-015-016-024-300700-
NORTHWEST ILLINOIS

CITY           SKY/WX    TMP DP  RH WIND       PRES   REMARKS
MOLINE         CLEAR     58  46  64 W6        29.95R
6HR MIN TEMP:  58; 6HR MAX TEMP:  73;

STERLING*      CLEAR     55  48  77 W7        29.93S
SAVANNA*       CLEAR     60  47  63 W7        29.93R
$$

ILZ003-004-008-010-011-017-018-300700-
NORTH CENTRAL ILLINOIS

CITY           SKY/WX    TMP DP  RH WIND       PRES   REMARKS
ROCKFORD       PTCLDY    56  48  74 W6        29.92S
6HR MIN TEMP:  56; 6HR MAX TEMP:  71;

FREEPORT*      CLEAR     55  46  71 W7        29.94R
ROCHELLE*      CLEAR     54  47  79 W7        29.92S
DE KALB*       CLEAR     58  47  66 W8        29.92R
PERU*          CLEAR     56  45  66 W8        29.94R
$$

ILZ005-006-012>014-019>023-300700-
NORTHEAST ILLINOIS

CITY           SKY/WX    TMP DP  RH WIND       PRES   REMARKS
CHICAGO-OHARE  PTCLDY    56  47  71 SW3       29.90R
6HR MIN TEMP:  55; 6HR MAX TEMP:  72;

CHICAGO-MIDWAY PTCLDY    64  46  52 SW3       29.90R
6HR MIN TEMP:  63; 6HR MAX TEMP:  74;

AURORA         PTCLDY    58  47  66 W8        29.92R
6HR MIN TEMP:  57; 6HR MAX TEMP:  73;

LANSING*       PTCLDY    54  48  82 S5        29.91S
JOLIET*        CLEAR     56  49  76 CALM      29.92R
WAUKEGAN       CLEAR     54  53  97 SW5       29.88R
6HR MIN TEMP:  53; 6HR MAX TEMP:  69; 6HR PCP:  0.03;

DUPAGE AIRPORT CLEAR     55  48  77 CALM      29.90R
6HR MIN TEMP:  53; 6HR MAX TEMP:  71;

KANKAKEE*      CLEAR     56  46  68 CALM      29.94R
WHEELING       CLEAR     52  48  86 S5        29.90S
6HR MIN TEMP:  52; 6HR MAX TEMP:  71;

MORRIS*        CLEAR     57  46  65 CALM      29.92R
ROMEOVILLE*    CLEAR     58  50  73 W8        29.92R
NORTHERLY ISL    N/A     60  48  64 NE1         N/A
$$

LMZ740>746-300700-
SOUTHERN LAKE MICHIGAN

STATION/POSITION SKY/WX   TEMP    WIND        PRES    VSBY  WAVE
                          AIR SEA DIR/SP/G                  HT/PER
                          (F)     (DEG/KT/KT) (MB)    (MI)  (FT/S)
SOUTHERN BUOY              51 48  250/  8/  8 1011.8          1/ 4
WILMETTE HARBOR            55 53  200/  6/  6   N/A           1/ 2
HARRISON CRIB              63     350/  6/  7   N/A
BURNHAM HARBOR             58      CALM  /  7   N/A
CALUMET HARBOR             66     230/  4/  6 1012.0R
BURNS HARBOR               64     210/  8/ 11 1013.2R
MICHIGAN CITY              60     320/ 11/ 12   N/A
MICHIGAN CITY 6N           56 56  340/  4/  6   N/A           1/ 3
ST. JOSEPH                 58 59   70/  2/  4 1012.8R         1/ 4
$$

ILZ025>027-034>036-040-047-049-050-058-095>099-300700-
WEST-CENTRAL ILLINOIS

CITY           SKY/WX    TMP DP  RH WIND       PRES   REMARKS
QUINCY         PTCLDY    60  46  59 SW5       30.00R
GALESBURG*     CLEAR     57  46  65 W6          N/A
MACOMB*        CLEAR     58  45  62 W6        30.00R
JACKSONVILLE*  CLOUDY    59  51  75 SW5       29.98S
PITTSFIELD*    PTCLDY    63  50  63 W3        30.01R
$$

ILZ028>032-037-038-041>044-048-051>054-059>061-300700-
CENTRAL ILLINOIS

CITY           SKY/WX    TMP DP  RH WIND       PRES   REMARKS
PONTIAC        CLEAR     60  49  67 SW6       29.95R
BLOOMINGTON    CLEAR     61  43  51 W8        29.97R
DECATUR        MOCLDY    60  48  64 SW5       29.98R
PEORIA         CLEAR     59  45  59 W3        29.97R
6HR MIN TEMP:  59; 6HR MAX TEMP:  74;

LACON*         MOCLDY    56  48  74 CALM      29.95R
LINCOLN*       CLEAR     63  46  54 CALM      29.97S
SPRINGFIELD    CLEAR     59  53  80 W3        29.98S
6HR MIN TEMP:  59; 6HR MAX TEMP:  79;

TAYLORVILLE    MOCLDY    61  52  73 CALM      29.99S
6HR MIN TEMP:  58; 6HR MAX TEMP:  78;

$$

ILZ033-039-045-046-055>057-062-063-300700-
EAST-CENTRAL ILLINOIS

CITY           SKY/WX    TMP DP  RH WIND       PRES   REMARKS
CHAMPAIGN      MOCLDY    61  48  62 SW7       29.97R
RANTOUL*       CLEAR     62  48  60 SW6       29.96S
MATTOON        PTCLDY    63  53  70 SW3       29.97S
PARIS*         PTCLDY    59  55  87 CALM      29.98S
$$

ILZ079-100>102-300700-
SOUTHWEST ILLINOIS

CITY           SKY/WX    TMP DP  RH WIND       PRES   REMARKS
ALTON          MOCLDY    60  58  94 NW3       30.00R
BELLEVILLE     CLEAR     62  60  94 CALM      30.00R
CAHOKIA*       CLEAR     61  58  90 CALM      29.99S
SPARTA*        PTCLDY    64  57  78 CALM      30.01S
$$

ILZ064>066-069>071-074>076-080>082-084>086-088>090-092>094-300700-
SOUTH-CENTRAL ILLINOIS

CITY           SKY/WX    TMP DP  RH WIND       PRES   REMARKS
CARBONDALE     CLEAR     60  59  96 S5        30.00R
6HR MIN TEMP:  59; 6HR MAX TEMP:  75;

CAIRO*         MOCLDY    68  64  85 CALM      30.01R
EFFINGHAM*     CLEAR     57  57 100 CALM      30.00S
MARION         PTCLDY    61  61 100 CALM      30.02R FOG
MT. VERNON     FOG       54  54 100 CALM      30.00S VSB 1
CENTRALIA*     CLEAR     60  58  95 CALM      29.99S
SALEM*         CLEAR     61  59  92 CALM      29.99S
$$

ILZ067-068-072-073-078-083-087-091-300700-
SOUTHEAST ILLINOIS

CITY           SKY/WX    TMP DP  RH WIND       PRES   REMARKS
LAWRENCEVILLE  CLEAR     60  56  86 S6        29.99R
FLORA*         CLEAR     60  57  92 CALM      29.99S
FAIRFIELD*     CLEAR     60  58  92 CALM      29.99S
HARRISBURG*    CLEAR     61  61 100 CALM      30.01S
ROBINSON*      CLEAR     60  54  82 W5        29.99R
CARMI*         CLEAR     60  59  96 CALM      30.00R
$$

ABBREVIATIONS USED IN REMARKS
   TC - TEMPERATURE IN CELSIUS
  WCI - WIND CHILL INDEX
   HX - HEAT INDEX
  VSB - VISIBILITY
$$





USA.gov is the U.S. government's official web portal to all federal, state and local government web resources and services.